Tracking 21076 objects as of 10-Aug-2020
HD Live streaming from Space Station
objects crossing your sky now
Track the most recent launched group of Starlink satellites

CZ-2D DEB

Track CZ-2D DEB now!
10-day predictions


NORAD ID: 38178
Int'l Code: 2011-068F
Perigee: 700.7 km
Apogee: 890.9 km
Inclination: 98.6 °
Period: 100.6 minutes
Semi major axis: 7166 km
RCS: 0.0014 m2 (small)
Launch date: November 20, 2011
Source: People's Republic of China (PRC)
Launch site: Jiuquan Satellite Launch Center, China (JSC)

Note: This is SATELLITE DEBRIS
aabbcc
Your satellite tracking list
Your tracking list is empty




NASA's NSSDC Master Catalog

Two Line Element Set (TLE):
1 38178U 11068F   20222.79055766 +.00000126 +00000-0 +60114-4 0  9991
2 38178 098.6489 198.6780 0132646 238.2706 241.7540 14.30918765451751
Source of the keplerian elements: AFSPC